Find Starlink 33564

NORAD ID: 62286 Int'l Des: 2024-237 Owner: SPXS Country: US Constellation: starlink operational
LEOCIRCULAR

現在のビュー

3D地球を読み込み中...

About Starlink 33564

Starlink 33564 (NORAD 62286) is a starlink constellation satellite (v2 mini) launched Dec 8, 2024 by SPXS of US. It operates in LEO, CIRCULAR orbit with a mass of 530.00 kg.

Starlink 33564について

説明を読み込み中...

次回通過

Passes for default location (London). Set your location on the main map for personalized predictions.

高度履歴

Loading altitude history...

軌道要素

1 62286U 24237V 26175.16003007 .00012838 00000-0 47499-3 0 9998
2 62286 43.0056 335.2061 0001928 268.5396 91.5235 15.27597942 87475
Epoch: Jun 24, 2026 • Age: 40 hours

現在のステータス

高度 487.3 km
速度 7.63 km/s
衛星直下点 43.16°N, 150.8°W
打ち上げ日 Dec 8, 2024
運用期間 1.5 years
タイプ internet

技術仕様

分類 Payload
質量 530.00 kg
乾燥質量 500.00 kg
総質量 530.00 kg
長さ 0.30 m
直径 4.10 m
スパン 29.00 m
形状 Box + pan
製造者 SPXS
バスタイプ Starlink V2MO
フェーズステータス In Orbit
所有者/国 SPXS/US

Most Searched